Theta_e
305 310 312 312 312 311 311 309 310 315 314 309 308 311 312 308 315 315 301 306 305 305 305 306 313 315 315 315 316 317 319 322 324 332 336 337 337 338 333 336 341 340 337 336 337 340 341 341 339
306 311 311 307 307 307 304 307 310 313 309 307 304 306 309 309 302 301 302 303 303 303 303 305 309 311 312 313 314 313 315 317 318 321 332 334 334 336 338 335 338 340 338 337 338 338 339 340 339
306 308 311 310 306 305 305 305 308 305 304 304 305 302 304 305 299 300 300 302 301 301 301 302 304 306 306 305 309 310 312 312 315 316 317 320 331 336 336 337 337 337 339 340 338 341 339 339 339
306 303 299 309 308 306 306 305 305 303 302 302 303 305 299 299 299 300 301 301 301 301 300 300 300 300 300 300 302 302 305 310 312 313 314 315 315 332 334 334 336 337 336 337 338 341 339 338 341
301 298 302 303 303 304 302 303 301 303 302 301 301 304 302 298 299 300 301 301 300 299 299 299 299 299 299 298 299 299 299 302 306 307 308 305 306 309 327 333 334 336 337 337 337 338 339 338 339
300 296 300 301 300 300 300 301 301 301 300 300 301 301 300 298 299 300 300 299 298 298 297 297 297 297 297 297 297 297 297 297 298 299 300 301 302 303 305 323 331 333 334 336 337 336 336 337 338
300 298 299 299 299 301 301 298 300 300 299 300 299 301 298 297 299 299 298 297 297 297 297 297 296 296 296 295 295 296 296 297 297 297 297 298 300 301 302 305 317 328 332 333 335 337 337 338 337
295 298 299 298 300 302 300 299 299 299 300 297 298 301 301 297 298 298 297 296 296 296 296 296 295 295 295 295 295 295 295 296 296 296 296 296 297 299 301 302 304 312 325 331 333 335 336 336 337
295 300 299 301 299 301 299 300 299 298 299 299 298 297 296 298 298 297 296 296 295 295 295 294 295 295 295 295 294 295 295 295 295 296 296 296 296 297 298 300 301 303 307 320 327 332 334 336 336
299 298 299 298 298 300 299 299 300 300 299 299 299 296 296 297 296 295 295 295 295 295 294 294 295 295 295 294 294 295 295 295 295 295 295 296 296 296 296 297 300 301 302 306 318 325 331 334 336
298 299 298 301 299 298 299 299 298 298 299 298 299 298 295 295 295 295 295 295 295 295 294 294 294 294 293 293 294 294 294 294 295 295 294 294 295 295 296 296 297 300 301 303 307 314 322 331 332
300 299 300 300 301 299 299 298 298 296 299 297 296 296 295 295 294 294 294 294 294 294 293 293 292 292 292 291 292 292 293 293 293 294 294 293 293 294 295 295 296 296 299 301 303 306 312 322 331
300 300 299 299 299 298 297 298 298 297 295 295 295 295 295 295 294 294 295 294 294 293 293 292 292 291 291 290 290 290 291 291 292 292 292 292 293 293 294 295 295 295 296 299 301 303 306 311 327
299 299 299 299 299 298 298 298 297 299 296 294 294 295 295 294 294 293 293 293 292 292 292 292 291 290 289 289 289 289 289 290 290 291 291 292 292 293 294 295 294 295 295 297 299 301 304 306 311
300 300 299 298 298 299 297 299 297 298 296 296 294 294 294 294 293 293 294 293 292 292 291 290 289 288 288 287 288 288 288 288 288 289 290 291 291 293 294 294 295 294 295 297 299 300 302 305 308
301 300 300 300 298 298 299 300 300 297 296 297 295 294 293 293 293 294 294 293 292 291 289 288 288 287 287 287 288 287 287 287 288 289 289 290 290 291 293 294 294 294 295 296 299 301 303 305 310
299 300 300 300 299 298 299 301 301 296 296 298 297 295 293 292 291 292 292 291 290 289 288 287 287 287 287 287 287 287 287 287 287 287 287 289 290 290 292 292 293 295 296 298 300 302 304 307 311
301 300 300 300 300 299 299 299 299 300 296 298 297 295 293 292 291 291 290 290 289 288 287 287 286 286 286 285 285 285 285 286 286 286 287 288 288 290 291 293 294 295 297 298 300 303 304 307 312
301 301 301 299 298 299 299 298 299 299 297 296 296 294 292 291 289 289 288 288 287 287 286 285 285 285 284 283 283 283 284 284 284 285 285 286 288 290 292 293 295 297 298 298 300 302 305 307 311
299 300 300 299 298 298 298 298 298 298 297 295 294 294 292 290 286 285 286 286 286 285 285 284 284 283 283 282 282 282 283 283 283 284 285 286 287 289 289 291 294 296 297 298 299 303 304 307 310
301 301 301 301 298 296 295 298 296 297 296 295 293 292 290 290 287 285 285 285 285 284 284 283 283 282 282 281 281 282 282 283 283 284 284 285 287 287 288 290 294 295 295 297 299 303 304 307 311
301 299 300 300 296 300 295 302 298 298 296 296 295 293 290 287 285 285 285 284 284 283 283 282 282 281 281 281 280 281 281 282 282 282 283 284 285 286 288 292 293 294 295 296 298 302 305 309 310
299 297 298 298 296 292 298 296 299 296 300 298 295 293 291 287 284 285 283 283 283 282 282 281 280 280 280 280 280 280 280 281 281 282 283 284 284 285 287 289 291 292 294 295 296 299 303 304 309
297 298 299 294 295 295 295 299 300 298 294 297 295 292 289 287 285 285 283 282 282 281 281 280 279 279 279 279 279 279 279 280 281 281 282 283 283 284 286 288 289 290 292 293 294 296 300 302 304
299 303 307 302 294 302 295 298 301 295 291 291 291 290 285 284 284 284 282 281 281 280 280 279 279 279 279 279 279 279 279 278 279 280 281 282 282 283 284 285 286 288 290 291 292 295 296 300 301
301 301 308 310 299 297 297 298 306 293 289 284 282 281 284 285 284 283 282 280 279 279 278 278 278 278 278 278 278 278 279 278 278 279 279 280 280 281 282 284 285 287 289 290 291 294 296 296 298
300 302 298 299 292 299 302 301 295 295 290 287 286 288 288 285 283 281 280 279 278 278 278 277 277 277 278 278 278 278 278 278 279 279 279 279 280 281 282 284 285 287 288 289 291 291 295 296 295
299 298 301 299 305 303 305 298 301 292 291 290 287 288 286 283 282 280 279 278 277 277 277 277 277 277 278 278 278 278 278 279 279 279 279 280 281 282 283 284 284 285 286 288 291 292 293 296 294
298 301 299 298 297 305 301 303 291 289 284 288 287 288 284 282 280 278 277 276 276 277 277 277 277 278 278 278 278 278 278 279 279 279 280 280 281 281 282 283 284 285 285 286 288 291 292 294 294
297 299 300 304 301 290 291 299 284 282 276 276 284 287 283 281 278 277 275 274 275 276 276 277 277 278 278 278 278 278 278 279 279 279 280 280 281 282 282 282 283 284 284 284 286 288 290 291 291
Wind_Speed
3 3 5 4 3 3 3 5 1 2 2 2 2 2 4 3 3 2 9 10 7 8 9 11 15 17 18 19 19 20 20 19 20 12 8 11 14 5 5 6 7 14 18 18 18 18 19 20 20
1 3 4 2 4 1 4 3 5 4 3 6 4 2 2 2 1 6 8 8 7 7 8 11 13 15 17 17 18 19 19 19 19 19 10 6 8 8 3 5 7 10 16 17 18 19 20 20 20
3 2 3 3 3 5 4 4 3 2 4 2 3 3 3 4 2 9 7 9 7 6 6 9 11 13 14 15 17 18 18 18 18 17 16 15 7 5 4 2 7 9 11 17 19 20 20 22 22
2 4 4 3 6 5 5 3 4 4 0 2 3 3 1 1 5 8 13 9 5 4 4 6 8 10 12 14 15 17 17 17 16 16 15 16 14 6 7 4 4 8 11 14 18 20 22 23 25
5 3 3 1 5 4 4 3 7 4 3 1 1 3 1 1 7 14 13 9 5 2 3 6 8 11 13 14 15 16 17 17 16 15 15 13 13 12 8 7 7 8 8 13 17 21 22 24 25
3 2 2 4 5 4 4 4 5 4 3 2 2 5 3 5 14 14 12 8 5 2 3 6 9 11 13 13 14 14 14 15 17 17 15 15 13 12 11 9 9 9 13 11 14 18 22 24 26
5 3 4 3 4 4 5 6 5 6 5 5 4 5 1 8 15 15 12 8 6 2 2 6 9 11 13 13 14 14 13 13 15 16 17 16 15 14 13 12 11 10 11 14 16 16 20 22 24
4 4 2 4 4 6 2 4 0 5 5 2 2 5 3 6 20 16 12 9 5 2 2 5 9 11 13 14 15 17 17 15 14 16 17 18 17 16 15 14 13 13 14 14 16 21 20 22 24
3 2 3 4 6 3 0 3 1 0 3 2 2 1 0 12 21 17 13 9 6 3 3 6 8 11 13 14 16 17 18 19 17 16 17 18 19 18 18 16 15 14 13 15 15 19 23 22 24
3 3 7 4 4 3 2 3 2 1 2 3 3 2 5 20 21 17 13 12 8 5 5 7 10 13 14 14 16 17 17 18 20 19 18 18 20 20 19 20 18 16 15 14 16 18 20 24 24
4 5 3 3 4 3 2 2 2 4 6 8 7 5 9 14 16 16 16 13 11 7 5 5 8 11 13 14 16 17 18 18 18 20 22 19 18 20 22 21 21 20 17 16 15 15 16 17 24
2 5 4 2 3 4 3 1 3 7 6 2 8 4 8 10 12 16 17 14 11 8 5 5 7 10 11 14 15 17 19 19 20 21 20 23 23 21 21 22 22 21 20 19 17 17 16 17 19
3 3 2 5 3 5 1 7 6 10 8 7 1 6 8 10 12 18 16 13 12 11 7 5 7 10 12 16 17 18 19 20 21 20 21 21 22 22 22 22 22 22 21 21 20 19 18 18 18
2 4 6 6 5 4 5 2 4 8 2 7 7 9 7 9 14 12 14 16 15 10 6 6 8 10 13 17 18 20 21 20 20 21 21 20 20 20 20 20 23 23 21 21 21 21 20 21 22
2 6 6 5 3 4 5 6 11 9 2 4 7 7 7 8 12 17 19 17 14 10 7 6 8 10 14 17 19 21 22 20 20 20 19 19 18 18 18 19 20 23 24 21 20 21 21 21 23
3 1 4 0 4 0 2 6 4 1 6 8 8 6 7 7 11 16 15 14 12 10 7 6 7 11 15 18 21 23 24 23 20 18 18 20 19 18 17 19 20 22 22 22 20 20 20 20 19
2 4 4 7 3 2 4 5 3 1 3 7 7 7 6 6 8 14 14 13 12 9 6 5 9 12 17 20 23 24 23 21 18 19 20 18 17 18 17 19 21 22 21 20 19 19 18 19 18
4 4 4 5 1 2 4 13 16 16 8 14 8 7 6 7 9 15 13 12 9 7 6 8 11 14 18 21 23 23 20 16 19 19 18 19 20 19 17 18 19 18 19 21 18 18 19 18 17
1 3 5 4 1 2 8 8 17 19 8 11 9 6 7 6 3 10 12 9 7 6 6 8 11 14 17 18 18 14 14 16 16 17 19 17 17 16 15 15 16 17 17 19 21 20 19 17 15
3 5 6 5 1 1 6 16 19 16 8 5 4 3 4 2 3 6 10 8 6 5 6 8 11 14 16 17 17 14 17 15 19 18 14 14 14 15 16 16 17 18 21 21 21 19 19 18 16
4 4 4 5 5 1 6 8 6 1 2 2 2 0 1 1 5 4 7 5 3 4 6 9 12 15 17 17 16 15 15 13 13 14 15 15 14 16 17 14 16 18 21 22 22 21 20 18 14
2 2 1 3 4 4 3 6 6 3 6 3 3 3 0 2 3 3 3 2 4 4 7 11 13 16 16 15 15 13 14 17 18 19 19 19 16 15 14 15 15 18 19 19 21 19 18 17 17
4 2 2 2 2 4 1 2 7 3 2 3 5 4 2 2 3 3 2 3 2 6 9 11 13 15 14 15 14 12 14 15 17 18 20 19 18 17 17 18 18 18 19 21 20 20 19 17 16
3 1 2 3 2 2 2 3 5 3 4 1 2 3 4 2 3 1 2 2 6 7 10 12 14 14 15 15 15 14 14 15 17 17 19 19 18 18 18 18 20 19 18 18 19 18 16 17 17
3 4 3 3 2 5 0 2 8 4 3 4 5 7 5 5 4 4 3 5 7 8 10 12 13 16 17 16 16 16 15 14 15 17 17 18 18 18 17 20 21 21 20 19 18 17 17 15 15
1 3 3 4 3 4 1 5 3 4 3 5 6 8 7 6 5 5 4 4 6 7 11 14 15 16 17 18 18 17 15 14 14 15 17 19 19 20 21 20 22 22 22 21 18 17 17 14 14
3 2 2 3 2 1 3 5 6 2 4 4 5 6 7 6 5 5 5 5 7 10 11 12 13 14 16 18 18 18 15 16 17 18 19 19 19 18 18 19 20 21 21 22 20 18 16 15 14
0 4 2 1 2 4 3 4 4 3 3 5 6 7 7 5 5 4 4 5 8 10 12 12 12 13 14 15 15 16 16 15 15 15 17 17 18 18 17 17 17 17 18 18 18 18 15 14 15
3 2 1 1 1 2 3 5 6 6 5 7 8 9 7 7 5 4 4 6 9 10 10 11 11 12 13 14 14 14 15 16 14 15 14 15 17 17 16 16 15 15 15 14 15 15 13 12 14
2 2 3 2 3 1 0 6 3 5 4 4 11 10 7 4 5 4 4 8 10 10 10 10 10 11 12 13 13 13 14 15 15 15 15 13 14 14 15 15 15 16 16 14 12 11 9 10 11
Wind_Direction
355 117 128 54 78 63 261 256 239 199 225 327 32 160 166 66 157 170 127 130 115 88 62 46 36 32 29 27 27 28 28 27 21 16 31 34 31 322 307 257 223 217 215 216 212 208 205 202 197
17 126 70 84 104 126 261 251 217 201 155 129 71 29 55 130 95 131 134 137 127 94 64 49 38 31 26 25 21 18 18 22 22 19 1 348 6 37 345 286 254 230 223 224 223 217 211 210 208
130 89 87 100 124 193 219 221 231 159 153 165 114 48 152 168 107 147 150 146 126 99 66 42 33 30 22 17 12 11 10 8 14 16 16 8 325 341 24 350 266 254 240 232 232 227 224 217 214
164 35 44 109 216 244 205 209 193 151 95 44 132 137 233 195 162 169 157 152 146 90 49 27 10 7 6 5 3 359 0 2 5 6 3 3 0 330 311 309 262 268 253 245 237 237 234 228 217
52 59 88 220 247 259 243 226 161 176 165 185 223 193 227 228 152 153 160 164 167 127 43 10 355 353 353 351 345 341 340 348 356 353 348 343 347 352 329 281 279 268 279 258 253 245 243 236 228
47 89 103 231 242 243 257 191 169 181 178 186 125 147 224 174 161 160 165 166 160 119 38 11 2 359 354 349 341 341 335 332 333 334 329 319 323 328 333 307 281 267 259 267 263 255 249 242 232
125 103 220 223 245 288 231 160 185 177 167 227 145 164 172 195 179 173 172 168 167 149 3 359 357 355 353 352 348 344 341 330 325 325 324 315 307 313 312 314 303 276 272 269 260 258 251 248 242
110 103 176 237 213 259 177 185 137 161 213 85 185 202 214 206 184 180 178 177 178 197 320 345 353 354 355 351 348 346 343 339 326 320 318 315 310 302 299 299 300 300 275 267 268 259 257 252 250
137 58 233 244 168 250 322 225 200 317 140 228 197 159 122 162 173 177 184 196 209 245 314 345 347 350 348 345 341 338 337 337 335 326 319 315 315 311 303 297 295 293 302 279 269 269 262 258 252
102 155 223 213 202 238 213 193 214 203 201 258 285 145 141 163 175 182 192 205 221 245 295 326 340 345 346 344 339 336 333 331 332 332 329 321 315 311 307 300 295 290 292 290 280 274 268 261 256
161 213 211 246 223 181 204 257 201 166 240 220 207 200 170 176 188 199 210 218 226 237 259 311 335 340 341 340 338 337 335 332 328 326 327 324 315 309 306 302 297 293 290 290 285 284 281 273 263
263 241 217 258 209 164 203 185 259 202 226 170 217 156 171 188 197 205 213 211 210 221 248 299 329 336 337 339 338 336 334 332 329 326 322 322 321 313 308 305 301 297 292 291 290 286 285 270 266
225 301 245 289 254 243 296 232 236 257 226 222 168 178 191 202 205 216 217 216 213 219 236 282 320 331 333 335 335 334 332 328 325 322 319 318 314 312 310 305 303 298 294 288 287 287 286 282 266
311 286 274 272 242 250 228 284 138 251 303 217 202 220 218 213 207 207 203 204 207 218 239 283 311 323 328 331 331 330 329 325 321 317 318 315 312 308 308 305 302 299 297 291 285 284 285 285 275
304 319 305 232 224 244 174 268 236 233 181 189 221 230 237 232 213 215 217 214 210 217 239 277 307 316 324 329 330 328 327 323 318 315 313 314 313 308 302 302 301 299 298 294 289 283 281 280 281
316 69 328 138 151 226 167 278 265 196 181 236 232 232 238 243 234 234 228 219 208 214 228 261 296 314 321 324 325 325 324 323 320 318 315 316 313 305 299 299 299 301 297 293 288 286 284 280 285
335 255 221 314 177 131 182 278 279 146 206 264 238 237 231 250 250 237 224 211 204 211 230 275 302 317 321 321 321 320 318 319 318 320 319 316 313 308 299 297 298 301 295 289 284 280 277 281 282
242 250 249 251 249 214 243 257 275 271 208 245 245 256 255 244 231 228 206 196 198 217 256 290 307 316 319 321 320 319 318 316 315 320 321 314 312 311 307 302 303 297 293 292 286 278 277 274 280
286 236 259 259 218 267 247 269 276 276 235 257 255 255 261 268 305 193 181 182 196 231 266 294 308 317 321 326 329 323 315 310 312 314 315 317 318 317 310 303 298 296 290 292 288 283 278 275 261
266 275 274 275 96 242 306 288 270 277 268 222 246 238 274 168 100 137 157 169 199 242 278 301 311 316 323 326 321 310 305 304 308 317 314 311 307 299 305 291 288 286 293 290 289 276 274 264 244
225 213 246 259 323 164 314 287 316 277 278 243 238 232 358 300 181 174 175 198 254 283 295 308 315 319 323 324 317 312 311 307 316 316 313 318 310 304 302 294 290 289 287 288 282 280 264 258 248
281 341 302 343 37 269 18 288 302 318 302 268 267 218 73 106 105 141 172 249 286 291 310 312 318 321 322 321 317 313 310 308 310 310 311 312 308 305 302 304 290 293 293 286 283 275 278 252 246
227 17 67 90 86 19 312 51 273 335 81 52 26 26 282 190 171 192 264 285 292 301 314 322 320 319 324 322 317 311 306 302 304 305 305 308 306 305 306 302 298 297 296 290 286 281 269 264 250
156 44 105 62 109 320 217 131 283 236 199 12 10 5 7 295 229 243 324 271 287 319 323 324 327 323 324 325 321 317 302 303 301 299 301 303 304 304 298 296 296 295 295 290 284 282 269 265 264
36 57 311 325 10 230 220 83 254 275 240 221 282 313 324 323 309 294 290 303 322 323 325 328 323 325 330 327 321 315 311 303 295 300 300 299 298 300 298 300 299 297 294 294 288 281 276 264 269
79 163 215 253 307 297 84 236 234 212 248 266 274 274 299 303 296 295 300 304 313 322 328 329 332 328 330 327 322 321 318 307 300 295 291 290 289 289 297 292 296 296 292 286 289 282 276 268 265
158 192 74 119 171 265 248 270 300 339 326 355 326 314 296 309 324 307 301 312 324 327 327 332 328 329 331 328 329 327 325 315 303 301 298 293 295 295 293 295 296 293 286 283 285 280 276 275 262
103 138 145 140 236 260 290 281 241 311 293 303 294 306 311 318 323 306 301 326 329 328 330 333 334 331 333 333 335 330 324 312 307 308 307 305 302 298 299 299 296 292 286 281 274 274 266 267 259
148 197 158 50 271 241 303 275 210 209 220 259 290 305 304 307 296 291 302 320 327 329 333 335 339 339 341 341 341 337 330 322 321 317 317 314 310 311 309 308 306 301 295 291 270 256 252 252 248
87 173 174 214 196 216 193 275 197 224 234 238 285 299 296 271 284 285 305 323 329 329 334 341 344 347 347 346 346 345 340 331 331 334 330 323 314 317 322 321 318 320 314 303 283 269 249 241 236